SCP
0 0 0 0 0 0 0 0 0 0 0 0 0 0 0 0 0 0 0 0 0 0 0 0 0 0 0 0 0 0 1 2 2 2 2 1 1 0 0 0 0 0 0 0
0 0 0 0 0 0 0 0 0 0 0 0 0 0 0 0 0 0 0 0 0 0 0 0 0 0 0 0 0 0 1 1 2 2 2 2 1 1 0 0 0 0 0 0
0 0 0 0 0 0 0 0 0 0 0 0 0 0 0 0 0 0 0 0 0 0 0 0 0 0 0 0 0 0 0 1 2 3 3 3 2 1 1 1 0 0 0 0
0 0 0 0 0 0 0 0 0 0 0 0 0 0 0 0 0 0 0 0 0 0 0 0 0 0 0 0 0 0 0 1 1 3 3 3 2 2 1 1 1 0 0 0
0 0 0 0 0 0 0 0 0 0 0 0 0 0 0 0 0 0 0 0 0 0 0 0 0 0 0 0 0 0 0 0 1 2 3 3 3 2 2 1 1 0 0 0
0 0 0 0 0 0 0 0 0 0 0 0 0 0 0 0 0 0 0 0 0 0 0 0 0 0 0 0 0 0 0 0 1 2 3 3 3 2 1 1 0 0 0 0
0 0 0 0 0 0 0 0 0 0 0 0 0 0 0 0 0 0 0 0 0 0 0 0 0 0 0 0 0 0 0 0 0 1 2 2 2 1 1 0 0 0 0 0
0 0 0 0 0 0 0 0 0 0 0 0 0 0 0 0 0 0 0 0 0 0 0 0 0 0 0 0 0 0 0 0 0 1 1 1 1 1 1 0 0 0 0 0
0 0 0 0 0 0 0 0 0 0 0 0 0 0 0 0 0 0 0 0 0 0 0 0 0 0 0 0 0 0 0 0 0 1 1 1 1 1 0 0 0 0 0 0
0 0 0 0 0 0 0 0 0 0 0 0 0 0 0 0 0 0 0 0 0 0 0 0 0 0 0 0 0 0 0 0 0 1 1 1 1 1 0 0 0 0 0 0
0 0 0 0 0 0 0 0 0 0 0 0 0 0 0 0 0 0 0 0 0 0 0 0 0 0 0 0 0 0 0 0 1 1 1 1 1 0 0 0 0 0 0 0
0 0 0 0 0 0 0 0 0 0 0 0 0 0 0 0 0 0 0 0 0 0 0 0 0 0 0 0 0 0 0 0 1 1 0 0 0 0 0 0 0 0 0 0
0 0 0 0 0 0 0 0 0 0 0 0 0 0 0 0 0 0 0 0 0 0 0 0 0 0 0 0 0 0 0 0 0 0 0 0 0 0 0 0 0 0 0 0
0 0 0 0 0 0 0 0 0 0 0 0 0 0 0 0 0 0 0 0 0 0 0 0 0 0 0 0 0 0 0 0 0 0 0 0 0 0 0 0 0 0 0 0
0 0 0 0 0 0 0 0 0 0 0 0 0 0 0 0 0 0 0 0 0 0 0 0 0 0 0 0 0 0 0 0 0 0 0 0 0 0 0 0 0 0 0 0
0 0 0 0 0 0 0 0 0 0 0 0 0 0 0 0 0 0 0 0 0 0 0 0 0 0 0 0 0 0 0 0 0 0 0 0 0 0 0 0 0 0 0 0
0 0 0 0 0 0 0 0 0 0 0 0 0 0 0 0 0 0 0 0 0 0 0 0 0 0 0 0 0 0 0 0 0 0 0 0 0 0 0 0 0 0 0 0
0 0 0 0 0 0 0 0 0 0 0 0 0 0 0 0 0 0 0 0 0 0 0 0 0 0 0 0 0 0 0 0 0 0 0 0 0 0 0 0 0 0 0 0
0 0 0 0 0 0 0 0 0 0 0 0 0 0 0 0 0 0 0 0 0 0 0 0 0 0 0 0 0 0 0 0 0 0 0 0 0 0 0 0 0 0 0 0
0 0 0 0 0 0 0 0 0 0 0 0 0 0 0 0 0 0 0 0 0 0 0 0 0 0 0 0 0 0 0 0 0 0 0 0 0 0 0 0 0 0 0 0
0 0 0 0 0 0 0 0 0 0 0 0 0 0 0 0 0 0 0 0 0 0 0 0 0 0 0 0 0 0 0 0 0 0 0 0 0 0 0 0 0 0 0 0
0 0 0 0 0 0 0 0 0 0 0 0 0 0 0 0 0 0 0 0 0 0 0 0 0 0 0 0 0 0 0 0 0 0 0 0 0 0 0 0 0 0 0 0
0 0 0 0 0 0 0 0 0 0 0 0 0 0 0 0 0 0 0 0 0 0 0 0 0 0 0 0 0 0 0 0 0 0 0 0 0 0 0 0 0 0 0 0
0 0 0 0 0 0 0 0 0 0 0 0 0 0 0 0 0 0 0 0 0 0 0 0 0 0 0 0 0 0 0 0 0 0 0 0 0 0 0 0 0 0 0 0
0 0 0 0 0 0 0 0 0 0 0 0 0 0 0 0 0 0 0 0 0 0 0 0 0 0 0 0 0 0 0 0 0 0 0 0 0 0 0 0 0 0 0 0
0 0 0 0 0 0 0 0 0 0 0 0 0 0 0 0 0 0 0 0 0 0 0 0 0 0 0 0 0 0 0 0 0 0 0 0 0 0 0 0 0 0 0 0
Wind_Speed
4 5 1 1 1 1 3 3 1 1 1 2 1 2 4 4 4 4 4 4 4 3 4 5 5 6 6 5 4 2 1 0 1 1 2 2 2 1 1 1 1 2 2 2
4 2 2 1 1 2 2 2 1 1 2 1 2 2 2 3 2 2 2 3 4 5 7 7 6 6 5 5 5 3 2 1 0 1 2 2 1 0 0 1 1 1 2 2
3 2 2 2 3 2 0 2 2 1 2 2 1 3 3 2 3 4 4 3 4 4 5 6 6 6 5 6 5 4 3 2 1 0 1 1 1 1 1 1 1 2 2 1
2 3 2 3 1 2 1 1 1 1 1 1 1 2 3 2 4 5 5 5 4 5 5 5 5 6 5 4 4 4 4 3 3 2 2 2 1 0 1 1 1 2 2 2
2 3 3 2 2 1 2 0 1 1 1 1 0 1 5 2 2 4 4 4 5 5 4 5 5 5 4 5 5 5 5 5 4 3 2 1 1 1 1 2 2 2 2 2
1 1 1 1 2 0 0 2 3 3 1 2 3 3 4 2 3 3 3 3 4 5 5 5 5 5 5 6 6 6 6 5 5 4 3 1 1 2 2 3 2 2 2 2
5 3 3 2 3 3 3 3 2 2 1 4 1 3 5 3 2 1 2 2 3 4 5 5 7 6 6 7 6 6 6 6 6 4 3 3 2 2 1 2 2 2 2 2
4 4 4 3 0 1 1 3 4 4 4 2 0 3 4 1 2 2 2 2 4 4 5 5 6 5 6 6 6 6 6 5 5 5 4 4 4 2 2 2 2 2 2 3
2 3 4 3 1 1 1 1 2 2 1 1 2 2 4 2 3 3 3 4 5 5 5 5 5 6 5 6 6 5 5 5 5 5 4 4 5 4 4 3 3 2 3 3
1 3 5 5 2 2 1 2 3 3 3 2 3 3 3 2 3 3 3 4 4 5 5 5 5 6 5 5 5 5 5 5 5 5 5 5 5 4 4 3 4 4 4 4
1 0 5 4 3 3 1 1 2 2 3 3 2 4 2 2 1 1 2 3 3 4 4 5 5 5 5 6 6 5 5 5 5 5 5 5 5 5 5 4 5 4 4 4
1 1 2 4 3 2 0 1 2 3 2 2 2 4 1 0 1 0 1 3 3 3 4 4 5 5 5 6 6 5 5 5 5 5 5 5 5 5 5 5 5 5 4 4
1 2 3 5 4 4 2 1 1 2 2 2 3 5 1 3 3 3 3 3 4 4 5 5 5 5 6 6 6 6 5 5 5 5 5 5 5 5 5 5 5 5 5 4
3 2 2 3 4 3 4 4 2 2 2 3 6 6 4 3 3 3 3 3 3 4 5 5 6 6 6 5 5 6 6 5 5 5 4 5 5 5 5 5 4 4 4 4
3 1 1 3 5 3 4 5 3 3 4 5 5 5 6 3 2 2 2 2 3 4 5 6 5 6 6 6 6 5 6 6 5 5 5 5 5 5 5 5 5 4 4 4
3 1 2 3 3 4 5 6 4 4 3 4 4 6 4 2 1 1 1 2 3 4 5 5 6 6 7 6 6 6 6 6 5 5 5 5 5 5 5 5 5 5 5 4
1 2 2 3 6 5 5 5 4 3 3 4 5 5 1 1 1 2 2 2 3 4 4 5 5 5 6 6 6 6 5 5 5 5 5 5 5 5 5 5 5 5 5 5
2 2 2 2 5 3 6 1 2 2 3 3 4 3 2 3 2 2 1 1 3 4 4 5 5 5 5 5 5 5 5 5 5 5 6 5 5 5 5 5 5 5 4 4
3 4 3 2 1 8 9 3 2 2 4 3 4 3 2 1 2 2 2 1 2 3 4 4 4 4 5 5 6 5 5 5 5 6 7 6 6 6 6 6 5 5 5 5
2 3 4 3 1 6 6 1 1 2 4 3 3 3 2 1 1 4 2 2 2 3 3 4 4 4 4 5 5 5 6 6 6 7 7 7 6 6 6 6 6 5 5 5
1 1 2 3 4 11 7 2 2 2 6 2 4 4 4 4 5 4 2 2 3 3 3 3 4 4 4 5 5 5 6 6 7 7 7 6 6 6 6 6 5 5 5 5
6 5 5 5 4 11 4 5 6 7 2 1 3 3 4 4 3 3 2 3 3 3 4 3 3 4 4 4 4 5 6 7 7 6 6 6 6 5 5 5 5 4 4 4
7 8 7 10 10 5 5 7 5 2 3 3 3 3 3 3 4 3 3 3 3 3 3 3 3 5 5 4 4 5 6 6 7 6 6 6 6 5 5 5 5 4 4 3
5 4 4 6 10 8 7 7 5 4 5 4 4 3 3 4 5 5 4 4 4 3 3 3 3 4 5 5 5 5 6 6 6 6 6 6 5 6 5 4 4 3 3 4
7 5 5 7 8 6 7 9 8 6 4 4 3 4 5 5 5 5 5 4 4 3 3 2 3 4 6 5 5 5 5 5 5 6 6 6 5 5 5 4 4 5 4 4
9 10 10 10 9 7 6 4 5 5 6 5 4 4 4 5 5 5 5 4 3 3 3 3 3 4 5 5 5 5 5 4 4 5 5 4 4 4 4 4 5 7 7 9
Wind_Direction
35 64 67 234 201 149 140 139 165 261 323 59 98 327 332 2 31 19 14 15 15 353 346 9 15 15 20 19 21 24 47 62 115 195 213 216 224 221 228 244 272 259 254 240
58 25 292 287 92 87 118 139 227 322 26 85 88 331 323 9 26 18 8 9 3 2 10 13 16 19 18 17 9 10 3 13 163 221 224 222 222 195 151 16 333 317 301 271
90 313 333 65 77 101 101 182 203 236 355 3 54 335 323 351 31 33 26 17 13 13 2 6 15 15 17 16 5 7 5 8 6 27 72 54 65 47 21 351 329 321 319 324
26 337 16 56 29 117 241 250 200 204 122 296 123 269 297 332 3 11 6 8 10 10 5 11 15 14 9 358 0 13 19 22 24 46 72 89 96 230 267 307 330 351 348 347
0 357 33 45 316 136 220 251 138 178 182 287 359 174 288 342 330 334 348 1 4 8 7 11 17 13 3 5 13 14 23 27 25 33 55 115 194 262 338 9 17 7 353 354
331 330 33 289 305 279 93 66 53 41 67 248 232 188 276 274 261 300 340 1 3 8 10 10 13 18 14 14 19 19 24 22 19 22 22 25 351 359 16 12 357 346 350 348
355 352 351 357 13 19 47 95 62 16 336 250 229 187 248 266 284 272 300 336 2 10 13 11 10 11 12 14 15 18 25 21 15 19 14 359 345 351 353 343 328 334 332 330
23 337 340 353 305 243 223 146 157 183 212 265 316 219 250 287 349 13 15 13 11 11 11 10 9 8 10 11 13 15 18 17 15 18 9 6 5 358 351 349 346 335 328 324
35 303 321 319 298 144 133 176 182 135 51 229 248 273 294 353 21 28 28 22 10 5 7 5 5 7 9 10 9 10 12 14 14 12 9 14 10 8 3 359 2 354 351 348
137 299 313 316 6 21 156 148 113 129 157 242 278 250 237 303 333 358 10 8 357 358 3 2 3 5 7 6 3 9 13 10 7 11 13 12 7 8 7 8 10 3 355 356
64 8 324 0 16 317 4 97 110 137 167 174 244 267 218 210 271 299 337 348 350 351 350 351 354 360 2 5 7 8 9 10 8 7 8 13 8 8 8 9 2 356 353 356
350 103 313 290 273 296 222 174 151 164 216 200 216 264 292 212 330 357 350 346 347 351 351 355 357 360 1 360 359 2 5 7 360 0 8 9 8 9 11 5 358 356 353 352
1 69 9 346 344 358 1 325 167 140 130 177 197 252 302 27 10 1 2 353 352 357 2 1 2 1 356 353 353 355 360 358 357 3 6 3 5 6 2 355 352 354 352 353
61 76 158 210 264 307 307 304 297 165 184 210 223 241 286 323 329 336 347 353 353 359 2 360 358 357 351 348 350 352 352 351 353 359 1 358 356 353 346 344 348 349 350 350
66 85 270 270 287 288 278 277 276 228 214 217 241 239 260 268 274 295 324 349 357 354 354 352 350 346 344 344 347 347 345 348 351 353 355 350 347 348 347 345 345 345 346 344
46 92 341 316 327 310 291 278 255 239 231 239 257 271 272 282 17 336 325 331 336 337 341 342 343 343 342 341 340 340 341 343 349 349 343 341 345 347 344 341 341 342 340 338
42 88 46 300 322 348 297 266 220 227 225 202 221 240 255 262 268 262 281 300 313 321 327 330 332 331 329 329 331 330 331 338 347 344 337 339 339 337 333 334 336 335 332 333
143 106 110 339 14 280 252 285 202 223 254 232 242 258 236 237 264 274 265 268 303 311 314 318 322 326 326 328 332 331 336 343 345 343 338 337 337 329 327 330 328 327 326 324
163 138 112 97 312 284 293 272 200 203 277 244 230 252 262 290 348 301 264 260 268 288 296 300 308 314 324 332 331 333 337 342 345 341 336 333 329 323 324 323 321 319 318 314
100 108 116 122 178 251 262 272 203 105 285 252 195 218 225 118 292 273 287 312 304 307 310 314 323 329 333 332 335 338 336 340 337 330 324 322 322 317 315 311 310 310 309 307
126 94 155 176 229 262 256 263 109 152 254 241 194 202 188 198 227 258 292 306 301 306 311 322 327 329 324 328 338 333 331 329 323 323 321 321 319 313 306 306 308 310 309 310
186 178 190 162 207 259 221 149 185 219 254 207 203 204 207 231 258 271 276 283 299 308 317 325 324 318 322 335 339 327 321 319 323 322 320 318 316 313 310 309 310 313 311 309
209 198 189 195 217 245 188 204 225 208 223 229 218 229 219 239 254 266 275 281 290 295 307 318 313 310 320 336 335 316 315 324 325 323 318 315 315 314 313 310 310 313 312 306
247 200 205 248 256 248 241 245 249 226 228 236 226 229 219 233 248 261 267 272 281 287 294 307 310 308 314 330 331 313 316 325 322 316 314 315 316 315 313 310 307 303 302 303
224 183 210 252 266 280 259 235 235 233 232 239 235 225 226 232 249 252 260 266 270 283 296 302 298 300 306 320 321 321 324 324 319 314 312 315 312 310 310 307 298 299 287 285
196 187 192 226 221 206 241 234 211 213 229 231 231 242 239 224 238 248 256 263 267 279 293 297 294 296 302 310 310 315 320 317 314 313 314 313 312 313 313 313 311 305 307 310